Location: Prairie State College
(41.5244°N, 87.6382°W)
Time: 09:03:03
(UTC-05:00)

Cosmos 1140 Rocket - Visible Passes

Search period start: 28 August 2016 00:00
Search period end: 07 September 2016 00:00
Orbit: 745 x 768 km, 74.1° (Epoch: 27 August)

Date Brightness Start Highest point End Pass type
(mag) Time Alt. Az. Time Alt. Az. Time Alt. Az.
28 Aug 4.4 05:24:59 10° S 05:29:54 49° ESE 05:34:51 10° NNE visible
29 Aug 5.5 04:45:22 10° SSE 04:49:36 27° E 04:53:50 10° NE visible
30 Aug 6.1 04:06:48 10° SE 04:09:25 14° E 04:12:02 10° ENE visible
30 Aug 3.5 05:45:29 10° SSW 05:50:34 66° WNW 05:55:43 10° NNE visible
31 Aug 3.8 05:05:01 10° S 05:10:04 67° ESE 05:15:12 10° NNE visible
01 Sep 4.9 04:25:05 10° SSE 04:29:42 35° ESE 04:34:22 10° NE visible
02 Sep 5.8 03:45:54 10° SE 03:49:28 19° E 03:53:03 10° NE visible
02 Sep 3.7 05:25:53 10° SW 05:30:50 49° WNW 05:35:51 10° N visible
03 Sep 3.4 04:46:29 19° SSW 04:50:16 90° E 04:55:28 10° NNE visible
04 Sep 4.2 04:07:23 27° SSE 04:09:51 48° ESE 04:14:48 10° NNE visible
04 Sep 4.8 05:47:59 10° WSW 05:51:55 22° WNW 05:55:53 10° N visible
05 Sep 5.2 03:28:12 23° ESE 03:29:33 26° E 03:33:45 10° NE visible
05 Sep 4.1 05:08:15 21° WSW 05:11:08 37° WNW 05:15:56 10° N visible
06 Sep 5.9 02:48:57 14° E 02:49:22 14° E 02:51:53 10° ENE visible
06 Sep 3.4 04:29:00 45° SW 04:30:30 68° WNW 04:35:40 10° NNE visible
